weather.gov     
National Weather Service

Regional Weather Roundup
NWS Homepage
This page is being discontinued on March 12, 2014.
The same data is available at this site. Please update your bookmarks.
Thank you, and we apologize for the inconvenience.
Please send an email to SR-SRH.Webmaster@noaa.gov with any concerns.


Current Version
Previous Version:    01  02  03  04  05  06  07  08  09  10  11  12  13  14  15  16  17  18  19  20  21  22  23  24  25  26  27  28  29  30  
   31  32  33  34  35  36  37  38  39  40  41  42  43  44  45  46  47  48  49  50  51  52  53  54  
[Printable]
167
ASUS41 KCTP 210903
RWRCTP

REGIONAL WEATHER ROUNDUP
NATIONAL WEATHER SERVICE STATE COLLEGE PA
500 AM EDT TUE OCT 21 2014

Note: "fair" indicates few or no clouds below 12,000 feet with no
significant weather and/or obstructions to visibility.

* = STATION THAT DOES NOT REPORT PRECIPITATION /E.G. RAIN...SNOW...ETC/
    THUNDER OR FOG.

PAZ002>004-007>009-013>016-020>023-029>032-211000-
WESTERN PENNSYLVANIA

CITY           SKY/WX    TMP DP  RH WIND       PRES   REMARKS
ERIE           CLOUDY    54  48  80 N5        29.81S
MEADVILLE      CLOUDY    50  48  93 CALM      29.81S FOG
FRANKLIN*      CLOUDY    48  45  87 SW7       29.83S
NEW CASTLE       N/A     50  50 100 CALM      29.84S FOG
BEAVER COUNTY  NOT AVBL
BUTLER*        CLOUDY    50  46  87 SW6       29.85S
PITTSBURGH INT CLOUDY    50  49  96 W6        29.84S
PITTSBURGH     CLOUDY    50  46  86 SW7       29.83S
INDIANA*       CLOUDY    48  48 100 W6        29.87S FOG
LATROBE        CLOUDY    50  50 100 SW6       29.85S
WASHINGTON CO* CLOUDY    48  46  93 SW5       29.86S
$$

PAZ004>006-010>012-017>019-024>028-033>037-041-042-045-046-049>053-211000-
CENTRAL PENNSYLVANIA

CITY           SKY/WX    TMP DP  RH WIND       PRES   REMARKS
BRADFORD       LGT RAIN  46  44  93 S5        29.80S
DUBOIS         LGT RAIN  47  46  97 SW9       29.81S FOG
CLEARFIELD     CLOUDY    47  46  97 S3        29.83S FOG
JOHNSTOWN      CLOUDY    48  43  82 SW8       29.83F
ALTOONA        CLOUDY    49  45  86 SW7       29.85S
STATE COLLEGE  CLOUDY    46  45  97 CALM      29.84S
WILLIAMSPORT   CLOUDY    50  43  77 N3        29.83F
SELINSGROVE    CLOUDY    51  47  86 CALM      29.85F
FT INDIANTOWN  MOCLDY    50  50 100 CALM      29.86F FOG
CAPITAL CITY   CLOUDY    52  51  97 CALM      29.86F FOG
HARRISBURG     MOCLDY    52  51  97 CALM      29.85S
YORK           CLOUDY    51  50  96 CALM      29.85F
$$

PAZ038>040-043-044-047-048-054-055-060>062-067>071-211000-
EASTERN PENNSYLVANIA

CITY           SKY/WX    TMP DP  RH WIND       PRES   REMARKS
SCRANTON       LGT RAIN  52  46  80 N3        29.85F
MOUNT POCONO   LGT RAIN  49  45  86 SW5       29.86F
ALLENTOWN      LGT RAIN  52  48  86 NE5       29.87F
QUAKERTOWN*    CLOUDY    48  48 100 CALM      29.88F
READING        CLOUDY    53  50  89 CALM      29.86S
LANCASTER      CLOUDY    50  49  96 E3        29.86S
COATESVILLE    PTSUNNY   50  48  93 SE5       29.87F
POTTSTOWN      LGT RAIN  50  48  93 E3        29.88F
BLUE BELL      CLOUDY    52  50  93 CALM      29.87F
DOYLESTOWN     CLOUDY    49  47  93 CALM      29.88F
WILLOW GROVE   NOT AVBL
NORTH PHILA    CLOUDY    52  45  77 CALM      29.90F
PHILADELPHIA   CLOUDY    54  48  80 CALM      29.89F
$$




U.S. Dept. of Commerce
NOAA National Weather Service
1325 East West Highway
Silver Spring, MD 20910
E-mail: w-nws.webmaster@noaa.gov
Page last modified: May 16, 2007
NATIONAL WEATHER SERVICE: for Safety, for Work, for Fun - FOR LIFE